This is the latest recevied weather packets stored in our database for station/object OE3CJB-13. If no packets are shown the sender has not sent any weather packets the latest 10 day(s).
| Time | Temp. | Humidity | Pressure | Rain* | Wind** | Luminosity | Snow |
|---|---|---|---|---|---|---|---|
| 1787975131 | 17.22° C | 84% | 1171.4 hPa | 0 mm | - | - | - |
| 1787974218 | 17.22° C | 85% | 1172.1 hPa | 0 mm | - | - | - |
| 1787973355 | 17.22° C | 86% | 1172.1 hPa | 0 mm | - | - | - |
| 1787972444 | 17.22° C | 86% | 1172.8 hPa | 0 mm | - | - | - |
| 1787971531 | 17.22° C | 86% | 1172.2 hPa | 0 mm | - | - | - |
| 1787970618 | 17.22° C | 86% | 1174.6 hPa | 0 mm | - | - | - |
| 1787969755 | 17.22° C | 86% | 1173.7 hPa | 0 mm | - | - | - |
| 1787968867 | 17.22° C | 87% | 1175.5 hPa | 0 mm | - | - | - |
| 1787967930 | 17.22° C | 87% | 1179.3 hPa | 0 mm | - | - | - |
| 1787967019 | 17.22° C | 88% | 1179.8 hPa | 0 mm | - | - | - |
| 1787966165 | 17.22° C | 89% | 1181.4 hPa | 0 mm | - | - | - |
| 1787965244 | 17.22° C | 88% | 1183.1 hPa | 0 mm | - | - | - |
| 1787964330 | 17.78° C | 89% | 1185.4 hPa | 0 mm | - | - | - |
| 1787963418 | 18.89° C | 88% | 1185.7 hPa | 0 mm | - | - | - |
| 1787962555 | 20° C | 90% | 1186.1 hPa | 0 mm | - | - | - |
| 1787961646 | 20.56° C | 90% | 1184.8 hPa | 0 mm | - | - | - |
| 1787960731 | 20.56° C | 87% | 1184.5 hPa | 0 mm | - | - | - |
| 1787959818 | 20.56° C | 83% | 1184.1 hPa | 0 mm | - | - | - |
| 1787958956 | 21.11° C | 79% | 1184.8 hPa | 0 mm | - | - | - |
| 1787958044 | 21.67° C | 75% | 1183.7 hPa | 0 mm | - | - | - |
| 1787957130 | 22.22° C | 72% | 1182.7 hPa | 0 mm | - | - | - |
| 1787956218 | 22.22° C | 71% | 1182.5 hPa | 0 mm | - | - | - |
| 1787955354 | 22.22° C | 71% | 1181.5 hPa | 0 mm | - | - | - |
| 1787954449 | 22.22° C | 70% | 1181.5 hPa | 0 mm | - | - | - |
| 1787953532 | 22.22° C | 70% | 1180.5 hPa | 0 mm | - | - | - |
* Rain latest hour (hover to see other rain measurements)
** Current wind speed in m/s (hover to see current wind gust speed)